Regional Weather Roundup
Issued by NWS Bismarck, ND

Home | Current Version | Previous Version | Text Only | Print | Product List | Glossary On
Versions: 1 2 3 4 5 6 7 8 9 10 11 12 13 14 15 16 17 18 19 20 21 22 23 24 25 26 27 28 29 30 31 32 33 34 35 36 37 38 39 40 41 42 43 44 45 46 47 48 49 50
660
ASUS43 KBIS 132102
RWRBIS

NWR BROADCAST TEXT
NATIONAL WEATHER SERVICE BISMARCK ND
300 PM CST SAT FEB 13 2016

NOTE: "FAIR" INDICATES FEW OR NO CLOUDS BELOW 12,000 FEET WITH NO
SIGNIFICANT WEATHER AND/OR OBSTRUCTIONS TO VISIBILITY.


CITY           SKY/WX    TMP DP  RH WIND       PRES   REMARKS
WILLISTON      LGT SNOW  21  15  78 SE12      29.82F WCI   9
MINOT          FLURRIES  18   7  62 SE15G23   29.95F WCI   4
MINOT AFB      CLOUDY    17   9  70 SE20      29.94F WCI   1
BISMARCK       FLURRIES  19  10  68 SE21G28   29.98F WCI   3
DICKINSON      MIX PCPN  18  15  88 SE16      29.78F VSB 1   WCI   3
GARRISON         N/A     13   9  84 S15       29.95F WCI  -3
HETTINGER ARPT CLOUDY    22  19  89 SE12      29.81F WCI  10
JAMESTOWN      CLOUDY     9   0  67 SE16G26   30.13F WCI  -8
CARRINGTON     CLOUDY     9   3  78 SE30      30.08F HAZE    WCI -14
HAZEN          MOCLDY    16   9  73 S12       29.99R WCI   3
LINTON         CLOUDY    14  10  85 SE28G35   30.00F WCI  -6
MANDAN         FLURRIES  14  10  85 SE17      29.95F WCI  -3
OAKES          CLOUDY    12   0  57 SE20G26   30.18F WCI  -6
STANLEY        MOCLDY    14  12  92 S20       29.88F WCI  -3
WATFORD CITY   LGT SNOW  19  16  86 SE13      29.82F WCI   7
$$

CITY           SKY/WX    TMP DP  RH WIND       PRES   REMARKS
GRAND FORKS    PTSUNNY   10  -2  58 S20       30.30F WCI  -9
GRAND FORKS AF CLOUDY     9  -3  60 S18       30.27F WCI -10
DEVILS LAKE    CLOUDY     6  -1  73 SE20G25   30.12F WCI -14
FARGO          CLOUDY    12   0  58 SE16G25   30.30F WCI  -5
GRAFTON        FAIR       7  -2  66 SE21      30.32F WCI -13
GWINNER        CLOUDY     9   3  78 SE21      30.23F WCI -11
LANGDON        CLOUDY     7  -2  66 SE23G29   30.14F WCI -14
$$

CITY           SKY/WX    TMP DP  RH WIND       PRES   REMARKS
ABERDEEN       CLOUDY    15   4  61 S28       30.17F WCI  -5
MOBRIDGE       LGT SNOW  19  15  84 SE23      29.95F FOG     WCI   2
BUFFALO          N/A     29  26  89 S10       29.73S WCI  20
RAPID CITY     SUNNY     50  32  50 S9        29.78F
GLASGOW        CLOUDY    30  27  88 SW3       29.78F
SIDNEY         CLOUDY    28  27  93 S7        29.81F
GLENDIVE       CLOUDY    34  30  86 S6        29.81F
MILES CITY     RAIN      41  39  93 NW25G35   29.86R
BAKER          MOSUNNY   40  30  67 E6        29.80R
$$

CITY           SKY/WX    TMP DP  RH WIND       PRES   REMARKS
BILLINGS       CLOUDY    45  29  53 W23G33    29.94S
GREAT FALLS    SUNNY     46  19  34 W29G35    29.94S
ESTEVAN        FLURRIES  18  12  79 SE14G20   29.86F WCI   4
$$





USA.gov is the U.S. government's official web portal to all federal, state and local government web resources and services.